Regional Weather Roundup
Issued by NWS Glasgow, MT

Home | Current Version | Previous Version | Text Only | Print | Product List | Glossary On
Versions: 1 2 3 4 5 6 7 8 9 10 11 12 13 14 15 16 17 18 19 20 21 22 23 24 25 26 27 28 29 30 31 32 33 34 35 36 37 38 39 40 41 42 43 44 45 46 47 48 49 50
000
ASUS45 KGGW 241415
RWRGGW
HOURLY WEATHER ROUNDUP FOR NORTHEAST MONTANA
NATIONAL WEATHER SERVICE GLASGOW MONTANA
800 AM MDT THU JUL 24 2014

NOTE: "FAIR" INDICATES FEW OR NO CLOUDS BELOW 12,000 FEET WITH NO
SIGNIFICANT WEATHER AND/OR OBSTRUCTIONS TO VISISBILITY.

NORTHEAST MONTANA


CITY           SKY/WX    TMP DP  RH WIND       PRES   REMARKS
GLASGOW        SUNNY     68  60  75 SE18      29.79R
PLENTYWOOD       N/A     65  60  84 SE14        N/A
WOLF POINT     SUNNY     72  60  66 E9        29.81S
JORDAN           N/A     70  59  68 E12       29.81S
WINNETT          N/A     73  61  65 E5          N/A
SIDNEY         MOSUNNY   66  61  82 SE8       29.85F
GLENDIVE       MOSUNNY   70  57  64 E16       29.86S
MALTA            N/A    113  -9   1 SW2         N/A  HX 102

FORT PECK REPORTS


CITY           SKY/WX    TMP DP  RH WIND       PRES   REMARKS
FORT PECK        N/A     72  59  63 E22         N/A
THE PINES        N/A     71  59  65 SE6         N/A

SOUTHEAST MONTANA


CITY           SKY/WX    TMP DP  RH WIND       PRES   REMARKS
BILLINGS       MOSUNNY   70  59  68 VRB3      29.87R
MILES CITY     SUNNY     71  57  61 E18G25    29.80F
BAKER          MOSUNNY   67  58  72 E24G32    29.87S
LIVINGSTON     MOSUNNY   67  45  45 NW15      29.91F

CENTRAL MONTANA


CITY           SKY/WX    TMP DP  RH WIND       PRES   REMARKS
HAVRE          MOSUNNY   67  59  75 W7        29.84R
LEWISTOWN      MOSUNNY   66  53  63 NW5       29.92R
GREAT FALLS    SUNNY     64  54  69 SW7       29.94R
CUT BANK       MOSUNNY   61  48  62 NW3       29.95R
HELENA         SUNNY     67  51  56 W10       29.97R
BUTTE          SUNNY     56  49  77 CALM      30.08R
BOZEMAN        SUNNY     62  50  64 S6        29.97R

WESTERN MONTANA


CITY           SKY/WX    TMP DP  RH WIND       PRES   REMARKS
MISSOULA       PTSUNNY   61  45  55 NW7       30.05R
KALISPELL      NOT AVBL

NORTH DAKOTA


CITY           SKY/WX    TMP DP  RH WIND       PRES   REMARKS
WILLISTON      CLOUDY    68  60  75 E5        29.85F
DICKINSON      CLOUDY    64  60  87 E16       29.92R
MINOT          LGT RAIN  63  61  93 E21G28    29.86F
BISMARCK       CLOUDY    68  59  73 CALM      30.00R

SOUTHERN SASKATCHEWAN


CITY           SKY/WX    TMP DP  RH WIND       PRES   REMARKS
REGINA         PTSUNNY   64  61  88 E13G20    29.80R
MOOSE JAW      CLOUDY    64  63  94 SE7       29.80R FOG
ESTEVAN        LGT RAIN  63  61  94 SE13      29.83F
SWIFT CURRENT  SUNNY     68  59  73 E6        29.80F



USA.gov is the U.S. government's official web portal to all federal, state and local government web resources and services.